Location: Crocus Hill
(18.2167°N, 63.0667°W)
Time: 18:39:48
(UTC+00:00)

Meteor 2-10 - Pass Details

Date: 26 January 2020
Orbit: 737 x 869 km, 81.2° (Epoch: 26 February)

Event Time Altitude Azimuth Distance (km) Brightness Sun altitude
Rises 08:47:45 0° 183° (S) 3,418 7.5 -28.0°
Reaches altitude 10° 08:50:12 10° 182° (S) 2,470 6.7 -27.5°
Maximum altitude 08:55:49 82° 95° (E) 844 4.1 -26.2°
Drops below altitude 10° 09:01:15 10° 9° (N) 2,396 6.5 -24.9°
Sets 09:03:36 0° 8° (N) 3,308 7.2 -24.4°
